Weather History for EHVL - November, 2012

Change the Weather History Date:

Friday, November 23, 2012

  Actual Average Record
Temperature  
Mean Temperature 44 °F -  
Max Temperature 48 °F 45 °F 55 °F (2003)
Min Temperature 41 °F 40 °F 26 °F (1998)
Degree Days  
Heating Degree Days 20    
Moisture  
Dew Point 42 °F    
Average Humidity 89    
Maximum Humidity 93    
Minimum Humidity 81    
Precipitation  
Precipitation 0.00 in - - ()
Sea Level Pressure  
Sea Level Pressure 29.89 in    
Wind  
Wind Speed 19 mph ()    
Max Wind Speed 30 mph    
Max Gust Speed -    
Visibility 5.7 miles    
Events Rain    
Averages and records for this station are not official NWS values.
T = Trace of Precipitation, MM = Missing Value Source: Averaged Metar Reports

Daily Weather History Graph

Daily Weather History Graph

Search for Another Location

Airport or City:

Trip Planner

Search our weather history database for the weather conditions in past years. The results will help you decide how hot, cold, wet, or windy it might be!

Date:

Astronomy

Nov. 23, 2012 Rise Set
Actual Time 8:19 AM CET 4:33 PM CET
Civil Twilight 7:39 AM CET 5:13 PM CET
Nautical Twilight 6:56 AM CET 5:56 PM CET
Astronomical Twilight 6:14 AM CET 6:38 PM CET
Moon 2:12 PM CET (11/23) 2:46 AM CET (11/23)
Length of Visible Light 9h 34m
Length of Day
8h 13m
Waxing Gibbous, 77% of the Moon is Illuminated
Nov 23
Waxing Gibbous
Nov 28
Full
Dec 6
Last Quarter
Dec 13
New
Dec 20
First Quarter

Hourly Weather History & Observations

Time (CET) Temp. Windchill Dew Point Humidity Pressure Visibility Wind Dir Wind Speed Gust Speed Precip Events Conditions
12:25 AM 44.6 °F 34.7 °F 41.0 °F 87% 29.89 in 6.2 mi South 29.9 mph - N/A   Overcast
12:55 AM 44.6 °F 35.3 °F 41.0 °F 87% 29.86 in 6.2 mi South 26.5 mph - N/A   Overcast
1:25 AM 44.6 °F 35.1 °F 41.0 °F 87% 29.86 in 6.2 mi South 27.6 mph - N/A   Overcast
1:55 AM 44.6 °F 34.9 °F 41.0 °F 87% 29.86 in 6.2 mi South 28.8 mph - N/A   Overcast
2:25 AM 44.6 °F 35.1 °F 41.0 °F 87% 29.86 in 6.2 mi South 27.6 mph - N/A   Mostly Cloudy
2:55 AM 44.6 °F 35.3 °F 41.0 °F 87% 29.83 in 6.2 mi South 26.5 mph - N/A   Mostly Cloudy
3:25 AM 44.6 °F 35.3 °F 41.0 °F 87% 29.83 in 6.2 mi South 26.5 mph - N/A   Partly Cloudy
3:55 AM 44.6 °F 35.1 °F 41.0 °F 87% 29.83 in 6.2 mi South 27.6 mph - N/A   Partly Cloudy
4:25 AM 44.6 °F 35.3 °F 41.0 °F 87% 29.80 in 6.2 mi South 26.5 mph - N/A   Partly Cloudy
4:55 AM 44.6 °F 35.1 °F 41.0 °F 87% 29.80 in 6.2 mi South 27.6 mph - N/A   Partly Cloudy
5:25 AM 44.6 °F 35.3 °F 41.0 °F 87% 29.80 in 6.2 mi South 26.5 mph - N/A   Partly Cloudy
5:55 AM 46.4 °F 37.7 °F 41.0 °F 81% 29.77 in 6.2 mi South 26.5 mph - N/A   Partly Cloudy
6:25 AM 46.4 °F 37.5 °F 41.0 °F 81% 29.77 in 6.2 mi South 27.6 mph - N/A   Mostly Cloudy
6:55 AM 46.4 °F 37.5 °F 41.0 °F 81% 29.77 in 6.2 mi South 27.6 mph - N/A   Mostly Cloudy
7:25 AM 46.4 °F 37.7 °F 41.0 °F 81% 29.77 in 6.2 mi South 26.5 mph - N/A   Light Drizzle
7:44 AM 44.6 °F 35.3 °F 41.0 °F 87% 29.77 in 6.2 mi South 26.5 mph - N/A   Drizzle
7:49 AM 44.6 °F 35.3 °F 41.0 °F 87% 29.77 in 6.2 mi South 26.5 mph - N/A Rain Light Rain
7:55 AM 44.6 °F 35.5 °F 41.0 °F 87% 29.77 in 6.2 mi South 25.3 mph - N/A Rain Light Rain
8:08 AM 44.6 °F 35.3 °F 41.0 °F 87% 29.77 in 6.2 mi South 26.5 mph - N/A Rain Light Rain
8:20 AM 44.6 °F 35.7 °F 42.8 °F 93% 29.77 in 6.2 mi South 24.2 mph - N/A Rain Light Rain
8:25 AM 44.6 °F 35.7 °F 42.8 °F 93% 29.80 in 6.2 mi South 24.2 mph - N/A Rain Light Rain
8:31 AM 44.6 °F 35.7 °F 42.8 °F 93% 29.80 in 6.2 mi South 24.2 mph - N/A Rain Light Rain
8:35 AM 44.6 °F 35.5 °F 42.8 °F 93% 29.80 in 6.2 mi South 25.3 mph - N/A Rain Light Rain
8:55 AM 44.6 °F 35.5 °F 42.8 °F 93% 29.80 in 4.3 mi South 25.3 mph - N/A Rain Light Rain
9:04 AM 44.6 °F 35.9 °F 42.8 °F 93% 29.80 in 2.8 mi SSW 23.0 mph - N/A Rain Rain
9:10 AM 44.6 °F 36.4 °F 42.8 °F 93% 29.80 in 3.1 mi SW 20.7 mph - N/A Rain Rain
9:21 AM 46.4 °F 39.0 °F 42.8 °F 87% 29.80 in 4.3 mi WSW 19.6 mph - N/A Rain Rain
9:25 AM 46.4 °F 39.0 °F 44.6 °F 93% 29.83 in 5.0 mi WSW 19.6 mph - N/A Rain Rain Showers
9:29 AM 46.4 °F 38.7 °F 44.6 °F 93% 29.83 in 5.6 mi West 20.7 mph - N/A Rain Rain Showers
9:42 AM 46.4 °F 39.2 °F 42.8 °F 87% 29.83 in 5.6 mi West 18.4 mph - N/A Rain Light Rain
9:46 AM 46.4 °F 39.5 °F 42.8 °F 87% 29.83 in 5.6 mi West 17.3 mph - N/A Rain Light Rain
9:55 AM 46.4 °F 39.8 °F 42.8 °F 87% 29.83 in 6.2 mi West 16.1 mph - N/A Rain Light Rain Showers
10:25 AM 44.6 °F 39.2 °F 42.8 °F 93% 29.83 in 6.2 mi SW 10.4 mph - N/A Rain Light Rain Showers
10:55 AM 44.6 °F 39.2 °F 42.8 °F 93% 29.83 in 6.2 mi South 10.4 mph - N/A Rain Light Rain
11:25 AM 44.6 °F 38.8 °F 42.8 °F 93% 29.83 in 6.2 mi South 11.5 mph - N/A   Mostly Cloudy
11:55 AM 44.6 °F 38.4 °F 42.8 °F 93% 29.86 in 6.2 mi South 12.7 mph - N/A   Overcast
12:10 PM 44.6 °F 37.8 °F 42.8 °F 93% 29.86 in 6.2 mi South 15.0 mph - N/A   Mostly Cloudy
12:14 PM 44.6 °F 37.8 °F 42.8 °F 93% 29.86 in 6.2 mi South 15.0 mph - N/A   Overcast
12:18 PM 44.6 °F 37.8 °F 42.8 °F 93% 29.86 in 6.2 mi South 15.0 mph - N/A   Overcast
12:25 PM 44.6 °F 37.4 °F 42.8 °F 93% 29.86 in 6.2 mi SSW 16.1 mph - N/A   Overcast
12:55 PM 46.4 °F 40.1 °F 42.8 °F 87% 29.86 in 6.2 mi South 15.0 mph - N/A   Overcast
12:59 PM 44.6 °F 37.8 °F 42.8 °F 93% 29.86 in 6.2 mi SSW 15.0 mph - N/A   Mostly Cloudy
1:04 PM 46.4 °F 39.8 °F 42.8 °F 87% 29.86 in 6.2 mi SSW 16.1 mph - N/A   Mostly Cloudy
1:14 PM 46.4 °F 40.1 °F 44.6 °F 93% 29.86 in 6.2 mi SSW 15.0 mph - N/A   Mostly Cloudy
1:18 PM 46.4 °F 40.1 °F 44.6 °F 93% 29.86 in 6.2 mi SSW 15.0 mph - N/A   Mostly Cloudy
1:25 PM 46.4 °F 40.1 °F 44.6 °F 93% 29.86 in 6.2 mi SSW 15.0 mph - N/A   Mostly Cloudy
1:45 PM 46.4 °F 40.1 °F 44.6 °F 93% 29.89 in 4.3 mi SSW 15.0 mph - N/A   Overcast
1:48 PM 46.4 °F 40.1 °F 44.6 °F 93% 29.89 in 6.2 mi SSW 15.0 mph - N/A Rain Light Rain
1:55 PM 46.4 °F 40.1 °F 44.6 °F 93% 29.89 in 6.2 mi SSW 15.0 mph - N/A   Mostly Cloudy
1:56 PM 46.4 °F 39.8 °F 44.6 °F 93% 29.89 in 6.2 mi SSW 16.1 mph - N/A   Overcast
2:05 PM 46.4 °F 39.5 °F 44.6 °F 93% 29.89 in 6.2 mi SW 17.3 mph - N/A   Mostly Cloudy
2:15 PM 46.4 °F 39.2 °F 44.6 °F 93% 29.89 in 6.2 mi SW 18.4 mph - N/A   Mostly Cloudy
2:25 PM 48.2 °F - 44.6 °F 87% 29.89 in 6.2 mi SW 18.4 mph - N/A   Mostly Cloudy
2:31 PM 46.4 °F 39.5 °F 44.6 °F 93% 29.89 in 6.2 mi SW 17.3 mph - N/A   Mostly Cloudy
2:49 PM 48.2 °F - 46.4 °F 93% 29.89 in 6.2 mi WSW 15.0 mph - N/A   Scattered Clouds
2:55 PM 48.2 °F - 46.4 °F 93% 29.89 in 6.2 mi WSW 16.1 mph - N/A   Scattered Clouds
2:56 PM 48.2 °F - 44.6 °F 87% 29.89 in 6.2 mi WSW 16.1 mph - N/A   Mostly Cloudy
3:05 PM 48.2 °F - 44.6 °F 87% 29.89 in 6.2 mi WSW 18.4 mph - N/A   Scattered Clouds
3:25 PM 48.2 °F - 44.6 °F 87% 29.89 in 6.2 mi WSW 18.4 mph - N/A   Scattered Clouds
3:30 PM 48.2 °F - 42.8 °F 82% 29.89 in 6.2 mi WSW 17.3 mph - N/A   Partly Cloudy
3:55 PM 48.2 °F - 42.8 °F 82% 29.92 in 6.2 mi WSW 16.1 mph - N/A   Partly Cloudy
4:25 PM 48.2 °F - 42.8 °F 82% 29.92 in 6.2 mi WSW 16.1 mph - N/A   Scattered Clouds
4:26 PM 48.2 °F - 42.8 °F 82% 29.92 in 6.2 mi WSW 16.1 mph - N/A   Mostly Cloudy
4:35 PM 46.4 °F 40.1 °F 42.8 °F 87% 29.92 in 6.2 mi WSW 15.0 mph - N/A   Partly Cloudy
4:55 PM 46.4 °F 40.1 °F 41.0 °F 81% 29.92 in 6.2 mi WSW 15.0 mph - N/A   Unknown
5:08 PM 46.4 °F 40.1 °F 41.0 °F 81% 29.92 in 6.2 mi WSW 15.0 mph - N/A   Scattered Clouds
5:15 PM 46.4 °F 39.8 °F 41.0 °F 81% 29.92 in 6.2 mi WSW 16.1 mph - N/A   Mostly Cloudy
5:25 PM 46.4 °F 40.7 °F 41.0 °F 81% 29.92 in 6.2 mi WSW 12.7 mph - N/A   Scattered Clouds
5:29 PM 46.4 °F 40.4 °F 42.8 °F 87% 29.92 in 6.2 mi WSW 13.8 mph - N/A   Partly Cloudy
5:55 PM 46.4 °F 40.1 °F 41.0 °F 81% 29.95 in 6.2 mi WSW 15.0 mph - N/A   Unknown
6:01 PM 46.4 °F 40.4 °F 41.0 °F 81% 29.95 in 6.2 mi WSW 13.8 mph - N/A   Scattered Clouds
6:08 PM 46.4 °F 40.4 °F 41.0 °F 81% 29.95 in 6.2 mi WSW 13.8 mph - N/A   Mostly Cloudy
6:20 PM 46.4 °F 40.4 °F 41.0 °F 81% 29.95 in 6.2 mi WSW 13.8 mph - N/A   Partly Cloudy
6:25 PM 46.4 °F 40.4 °F 41.0 °F 81% 29.95 in 6.2 mi WSW 13.8 mph - N/A   Partly Cloudy
6:55 PM 44.6 °F 38.4 °F 41.0 °F 87% 29.95 in 6.2 mi SW 12.7 mph - N/A   Unknown
7:25 PM 44.6 °F 38.8 °F 41.0 °F 87% 29.95 in 6.2 mi SW 11.5 mph - N/A   Unknown
7:55 PM 44.6 °F 38.4 °F 41.0 °F 87% 29.98 in 6.2 mi SW 12.7 mph - N/A   Partly Cloudy
8:25 PM 41.0 °F 35.8 °F 39.2 °F 93% 29.98 in 6.2 mi South 8.1 mph - N/A   Partly Cloudy
8:55 PM 41.0 °F 35.2 °F 37.4 °F 87% 29.98 in 6.2 mi South 9.2 mph - N/A   Partly Cloudy
9:10 PM 41.0 °F 34.7 °F 39.2 °F 93% 29.98 in 6.2 mi South 10.4 mph - N/A   Scattered Clouds
9:15 PM 41.0 °F 34.7 °F 39.2 °F 93% 29.98 in 6.2 mi South 10.4 mph - N/A   Mostly Cloudy
9:19 PM 42.8 °F 37.0 °F 41.0 °F 93% 29.98 in 6.2 mi South 10.4 mph - N/A   Mostly Cloudy
9:25 PM 42.8 °F 37.0 °F 39.2 °F 87% 29.98 in 6.2 mi South 10.4 mph - N/A   Mostly Cloudy
9:29 PM 42.8 °F 36.6 °F 39.2 °F 87% 29.98 in 6.2 mi South 11.5 mph - N/A   Partly Cloudy
9:39 PM 42.8 °F 36.6 °F 39.2 °F 87% 29.98 in 4.3 mi South 11.5 mph - N/A   Mist
9:55 PM 42.8 °F 36.6 °F 41.0 °F 93% 29.98 in 4.3 mi South 11.5 mph - N/A   Partly Cloudy
10:18 PM 42.8 °F 36.6 °F 41.0 °F 93% 30.01 in 3.7 mi South 11.5 mph - N/A   Scattered Clouds
10:25 PM 42.8 °F 36.6 °F 41.0 °F 93% 30.01 in 3.7 mi South 11.5 mph - N/A   Scattered Clouds
10:31 PM 42.8 °F 37.0 °F 41.0 °F 93% 30.01 in 5.0 mi South 10.4 mph - N/A   Partly Cloudy
10:35 PM 42.8 °F 36.6 °F 41.0 °F 93% 30.01 in 4.3 mi South 11.5 mph - N/A   Partly Cloudy
10:41 PM 42.8 °F 36.6 °F 41.0 °F 93% 30.01 in - South 11.5 mph - N/A   Partly Cloudy
10:46 PM 42.8 °F 36.6 °F 41.0 °F 93% 30.01 in 3.1 mi South 11.5 mph - N/A   Partly Cloudy
10:50 PM 42.8 °F 36.6 °F 41.0 °F 93% 30.01 in - South 11.5 mph - N/A   Partly Cloudy
10:55 PM 42.8 °F 36.6 °F 41.0 °F 93% 30.01 in 2.8 mi South 11.5 mph - N/A   Scattered Clouds
10:59 PM 42.8 °F 36.6 °F 41.0 °F 93% 30.01 in 3.1 mi South 11.5 mph - N/A   Mostly Cloudy
11:00 PM 42.8 °F 36.6 °F 41.0 °F 93% 30.01 in - South 11.5 mph - N/A   Mostly Cloudy
11:07 PM 42.8 °F 36.6 °F 41.0 °F 93% 30.01 in 3.1 mi South 11.5 mph - N/A   Mostly Cloudy
11:13 PM 42.8 °F 36.6 °F 41.0 °F 93% 30.01 in - South 11.5 mph - N/A   Mostly Cloudy
11:25 PM 42.8 °F 37.0 °F 41.0 °F 93% 30.01 in - SSW 10.4 mph - N/A   Mostly Cloudy
11:41 PM 42.8 °F 37.5 °F 41.0 °F 93% 30.01 in - South 9.2 mph - N/A   Scattered Clouds
11:55 PM 42.8 °F 37.0 °F 41.0 °F 93% 30.01 in 2.8 mi South 10.4 mph - N/A   Scattered Clouds